Track NAVSTAR 64 (USA 206) now! NAVSTAR 64 (USA 206) is classified as:
1 35752U 09043A 21102.00244060 .00000018 00000-0 00000-0 0 9999 2 35752 54.7671 102.9421 0058340 49.0912 308.7951 2.00542763 85407